Temperature
12 13 13 13 13 13 13 13 13 12 12 12 12 12 12 12 12 12 12 12 12 12 12 12 12 12 12 12 12 12 12 11 11 11 11 11 11 11 11 11 11 11 11
12 12 12 12 12 12 12 12 12 12 12 12 12 12 12 12 11 11 11 11 11 11 11 11 11 11 11 11 11 11 11 11 11 11 11 11 11 11 11 11 11 11 10
12 12 12 12 12 12 12 12 12 12 12 12 11 11 11 11 11 11 11 11 11 11 11 11 11 11 11 11 11 11 11 11 11 11 10 10 10 10 10 10 10 10 10
12 12 12 12 12 12 12 12 12 12 12 11 11 11 11 11 11 11 11 11 11 11 11 11 11 11 11 11 11 11 11 10 10 10 10 10 10 10 10 10 10 10 10
11 11 11 11 11 11 12 12 11 11 11 11 11 11 11 11 11 10 10 10 10 10 10 11 11 11 10 10 10 10 10 10 10 10 10 10 10 10 9 9 9 9 9
11 11 11 11 11 11 11 11 11 11 11 11 11 10 10 10 10 10 10 10 10 10 10 10 10 10 10 10 10 10 10 10 10 10 10 9 9 9 9 9 9 9 9
11 11 11 11 11 11 11 11 11 11 11 10 10 10 10 10 10 10 10 10 10 10 10 10 10 10 10 10 10 10 10 10 9 9 9 9 9 9 9 8 8 8 8
11 10 11 11 10 10 10 10 10 10 10 10 10 9 9 9 9 9 9 9 9 9 9 9 9 9 9 9 9 9 9 9 9 9 9 9 8 8 8 8 8 8 8
10 10 10 10 10 10 10 10 10 10 10 10 10 9 9 9 8 9 9 9 9 9 9 9 9 9 9 9 9 9 9 9 8 8 8 8 8 8 7 7 7 7 7
10 10 10 10 10 10 10 10 10 10 10 10 9 10 9 9 8 8 8 8 8 8 8 8 8 8 8 8 8 8 8 8 8 8 8 8 7 7 7 7 7 7 7
9 10 10 9 9 9 9 9 9 9 9 9 9 9 9 9 9 8 7 7 8 8 8 8 8 8 8 8 8 8 8 8 7 7 7 7 7 7 7 7 6 6 6
9 9 9 9 9 9 9 9 9 9 9 9 9 9 9 9 9 8 8 7 7 7 7 7 7 7 7 7 7 7 7 7 7 7 7 7 7 7 6 6 6 6 6
9 9 9 9 9 9 9 9 8 8 8 8 8 8 8 8 8 8 8 7 6 7 7 7 7 7 7 7 7 7 7 6 7 6 6 6 6 6 6 6 6 5 5
9 9 9 8 8 8 8 8 8 8 8 8 8 8 8 8 8 8 8 7 6 6 6 6 6 6 6 6 6 6 6 6 6 6 6 6 6 6 5 5 5 5 5
9 8 8 8 8 8 8 8 8 8 7 7 7 7 7 7 7 7 7 7 6 5 5 5 6 6 6 6 6 6 5 5 5 5 5 5 5 5 5 5 5 4 4
8 8 8 8 8 8 7 7 7 7 7 7 7 7 7 7 7 7 6 6 6 6 5 5 5 5 5 5 5 5 5 5 5 5 5 5 4 4 4 4 4 4 4
8 8 8 8 7 7 7 7 7 7 7 6 6 6 6 6 6 6 6 6 6 5 5 5 5 5 5 5 4 4 4 4 4 4 4 4 4 4 4 3 3 3 3
7 7 7 7 7 7 7 7 7 6 6 6 6 6 6 6 6 6 6 5 5 5 5 5 5 5 4 4 4 4 4 4 4 4 4 3 3 3 3 3 3 3 3
7 7 7 7 7 7 6 6 6 6 6 6 6 6 6 6 5 5 5 5 5 5 4 4 4 4 4 4 3 3 3 3 3 3 3 3 3 3 3 3 2 2 2
6 6 6 6 6 6 6 6 6 5 5 5 5 5 5 5 5 5 5 5 4 4 4 4 3 3 3 3 3 3 3 3 3 2 2 2 2 2 2 2 2 2 2
6 6 6 6 5 5 5 5 5 5 5 5 5 5 5 5 5 4 4 4 4 4 3 3 3 3 2 2 2 2 2 2 2 2 2 2 1 2 2 2 1 1 1
5 5 5 5 5 5 5 5 5 5 5 4 4 4 4 4 4 4 4 4 3 3 3 3 2 2 2 2 2 1 1 1 1 1 1 1 1 1 1 1 1 1 0
4 4 4 4 4 4 4 4 4 4 4 4 4 4 4 4 4 4 3 3 3 3 2 2 2 2 2 1 1 1 1 0 0 1 0 0 0 0 0 0 0 0 0
4 4 4 4 4 4 4 4 4 4 3 4 4 4 4 4 3 3 3 3 3 2 2 2 1 1 1 1 1 1 0 0 0 0 -0 -1 -0 -0 -1 -0 -0 -0 -0
3 3 3 3 3 3 3 3 3 3 3 3 3 3 3 3 3 3 2 2 2 2 2 1 1 1 1 1 0 0 -0 -1 -1 -1 -1 -1 -1 -1 -1 -1 -1 -1 -1
3 3 3 3 3 3 3 3 3 3 2 2 2 2 2 2 2 2 2 1 1 1 1 1 1 1 0 0 -0 -0 -1 -1 -1 -2 -1 -2 -2 -2 -2 -2 -2 -2 -2
Wind_Speed
6 6 6 5 6 6 7 7 6 7 7 7 6 6 6 6 6 6 7 8 7 6 6 6 6 6 6 5 5 5 5 6 6 6 6 6 6 6 6 5 5 6 6
7 6 6 5 5 6 6 7 7 7 6 6 6 6 6 6 7 6 6 7 6 5 5 5 5 4 4 5 5 6 5 6 6 6 6 6 6 5 5 5 5 5 5
8 7 6 5 5 6 7 7 7 7 6 6 6 6 6 6 6 6 6 5 5 6 5 5 5 4 4 4 4 5 5 6 6 6 5 5 4 4 4 4 4 5 5
9 7 6 5 7 7 6 6 6 6 6 6 5 5 5 5 6 5 5 5 4 4 5 5 4 4 3 3 4 5 5 5 5 5 4 3 3 3 3 3 4 4 4
9 8 6 6 7 7 6 6 6 6 6 6 5 5 5 5 4 5 4 4 4 4 3 4 4 4 3 3 4 4 4 4 4 3 2 2 2 2 2 3 4 4 5
10 9 7 8 7 6 6 7 8 6 6 6 6 5 4 4 4 4 3 4 4 4 4 3 3 3 4 3 3 3 3 3 2 2 1 1 1 2 3 3 4 5 5
10 9 7 8 7 7 8 9 8 8 7 6 5 4 4 4 3 3 3 3 3 3 4 4 3 2 3 3 3 2 2 2 1 1 1 1 2 2 3 4 5 6 6
10 9 9 8 8 7 9 9 9 6 5 5 5 4 3 3 2 2 2 2 2 2 3 3 4 3 2 2 3 3 2 1 1 0 1 2 3 4 4 5 6 6 7
10 9 10 9 8 8 8 10 10 9 7 5 3 3 3 3 2 2 1 1 1 1 1 2 3 2 2 2 1 3 2 1 1 2 2 3 4 5 6 6 7 8 8
9 10 10 10 9 8 9 9 9 8 9 7 4 1 1 2 2 2 2 2 1 0 1 1 1 1 1 1 2 3 3 2 2 3 3 4 5 6 6 7 7 8 8
8 9 10 10 9 8 9 9 8 7 7 7 5 3 2 2 2 2 3 3 2 1 1 1 0 0 1 1 2 2 3 3 4 4 5 5 6 7 8 8 8 8 9
6 8 9 9 9 9 9 9 8 8 7 6 5 4 4 3 3 3 3 3 3 2 2 1 1 1 0 1 2 3 4 3 4 6 6 6 7 8 9 9 9 9 10
6 8 8 9 9 9 9 9 8 7 7 7 6 4 3 2 2 2 3 2 2 2 2 2 1 1 1 1 1 3 4 4 5 6 7 8 8 8 9 10 10 10 11
7 8 8 9 9 9 9 9 7 7 7 7 7 6 4 3 3 3 3 3 2 2 3 3 1 2 2 2 2 3 4 4 5 7 7 8 8 8 9 9 10 11 12
6 8 9 9 9 9 9 9 7 7 7 6 6 6 4 3 3 3 3 3 3 3 3 3 2 2 2 4 4 4 5 5 6 7 8 8 8 9 9 9 9 10 11
6 8 8 8 8 9 9 8 7 7 7 6 5 6 5 4 3 3 3 3 3 3 3 3 3 3 3 4 5 6 6 6 7 7 8 8 9 10 9 10 10 11 11
7 8 8 8 8 8 8 8 8 8 7 6 6 6 6 5 4 3 3 3 3 3 3 2 2 2 3 4 4 5 6 6 7 7 8 9 9 10 10 10 11 11 11
7 7 8 8 8 8 8 8 8 8 8 7 7 6 6 4 5 4 3 3 3 3 3 3 3 3 4 4 4 5 5 6 7 8 8 9 10 10 11 11 11 11 12
7 7 7 8 8 8 8 8 8 8 7 7 7 7 6 6 5 4 4 3 3 2 2 3 3 2 3 3 4 4 5 5 6 7 8 9 10 11 11 12 12 12 12
7 7 7 7 7 7 7 8 8 7 7 6 6 6 6 6 6 5 4 4 3 3 3 3 2 3 3 4 4 4 4 5 5 7 7 8 9 11 11 12 12 13 13
6 6 7 7 7 6 6 7 7 7 7 6 6 6 5 5 5 5 4 4 4 3 3 3 3 3 4 4 4 4 5 5 6 5 5 6 7 8 9 10 11 12 13
6 6 6 7 7 6 7 8 7 7 7 7 6 5 5 6 6 5 5 5 6 6 5 4 4 5 6 5 4 4 5 6 6 4 5 7 7 7 8 9 11 13 15
6 6 6 6 6 6 8 8 7 6 6 6 6 5 4 4 5 5 5 5 5 6 7 6 7 7 6 6 5 6 6 7 7 6 6 8 7 8 8 10 12 14 15
5 5 5 6 5 6 7 8 7 6 5 5 6 6 6 5 5 5 4 4 4 5 6 6 6 7 6 6 6 7 7 7 7 6 6 7 7 8 8 10 12 13 13
5 5 5 5 5 5 7 7 6 5 5 5 4 5 6 6 6 6 5 4 4 4 4 5 6 7 7 8 7 4 5 5 7 6 5 5 6 8 8 8 9 11 13
4 4 4 5 5 5 6 7 6 4 5 4 3 4 5 6 6 6 5 5 5 4 3 3 4 5 5 6 7 6 6 6 6 5 4 4 6 6 6 5 6 8 10
Wind_Direction
166 163 161 161 163 163 161 156 152 150 145 140 137 135 132 130 128 123 111 103 104 103 106 113 113 112 107 105 105 104 106 115 102 96 91 84 75 66 56 46 37 31 26
167 167 167 165 162 163 164 159 154 148 143 138 135 132 131 127 123 121 117 108 95 97 100 108 113 108 109 106 102 103 104 110 108 100 91 87 77 64 50 41 34 27 20
172 170 169 169 165 163 159 154 153 145 140 136 132 125 121 122 121 117 111 109 108 95 91 97 100 99 101 110 106 105 104 107 101 95 90 83 73 55 39 27 21 12 4
178 171 170 171 168 164 160 157 156 152 144 142 138 128 121 116 114 112 108 102 102 104 93 86 92 93 96 105 110 107 104 106 106 96 87 78 63 36 21 12 2 355 349
179 174 170 167 169 166 163 161 160 157 150 144 135 127 120 115 111 109 108 99 92 89 91 92 92 86 88 104 109 107 110 112 115 107 90 68 40 7 357 347 339 334 333
180 177 171 170 172 170 165 164 157 149 144 139 130 119 113 109 102 99 99 92 83 77 72 84 100 99 78 83 110 111 110 116 119 109 76 23 345 326 322 323 319 320 320
180 179 175 173 178 176 170 165 155 147 142 139 129 121 109 103 103 99 93 90 79 66 58 53 59 79 85 83 103 113 100 89 97 102 2 331 319 313 310 314 316 314 313
181 181 181 179 180 175 171 166 159 157 151 161 158 155 158 154 130 103 107 97 76 72 60 48 52 55 64 66 80 95 91 82 57 358 332 319 311 306 301 305 306 306 306
183 182 183 180 179 179 174 170 170 168 168 169 173 181 180 183 151 147 152 136 97 73 53 48 52 46 49 60 70 86 73 27 286 288 303 307 307 305 299 299 300 299 300
185 183 181 180 178 178 173 173 177 173 171 171 172 192 221 136 168 168 178 182 165 289 324 25 62 48 30 48 45 55 47 11 322 296 297 300 306 309 308 304 301 303 301
187 185 184 178 176 177 174 173 175 175 176 177 173 164 153 146 168 189 198 202 211 244 260 269 269 33 24 20 16 37 26 1 343 326 314 305 302 302 303 304 303 302 302
185 186 184 179 176 176 174 175 175 178 176 173 169 171 173 175 182 189 201 201 215 229 253 266 266 269 323 0 2 21 355 343 332 320 312 308 303 298 299 297 296 297 298
182 185 182 179 175 173 173 174 175 179 178 174 173 178 184 188 179 187 177 190 215 228 231 243 241 267 269 299 348 1 336 327 327 314 309 309 308 304 299 296 294 295 297
183 177 176 176 172 171 172 173 175 178 177 178 175 176 177 175 169 173 180 177 198 226 226 234 233 240 262 287 304 309 315 316 315 310 304 308 311 306 302 302 300 298 297
175 176 176 173 170 173 175 174 179 181 180 181 179 178 176 174 173 181 183 189 198 220 236 229 225 232 275 291 298 298 302 307 304 302 302 304 305 303 300 300 300 301 301
173 175 176 173 172 173 174 173 176 182 180 179 177 181 181 178 174 182 192 206 221 224 234 224 240 253 261 278 291 293 296 300 296 294 294 296 296 297 299 299 299 299 299
173 177 175 173 173 175 176 176 176 177 182 178 179 187 189 184 182 188 194 203 214 218 232 252 257 253 252 260 276 283 289 293 295 291 290 292 293 294 296 296 298 298 297
176 177 176 175 173 173 176 180 180 182 185 186 188 190 193 188 193 195 199 208 216 227 231 238 251 255 261 259 265 273 283 288 289 288 286 285 286 288 290 292 294 294 296
176 175 175 177 175 174 176 182 184 185 189 193 194 194 196 192 200 203 208 215 220 222 233 231 249 259 268 264 272 278 281 285 290 288 285 281 281 284 288 289 288 289 292
173 177 179 178 177 176 178 181 184 185 191 196 198 200 200 200 205 205 210 216 213 213 214 222 239 256 265 270 271 277 286 290 290 293 286 285 285 285 285 285 284 285 288
170 173 174 174 174 177 180 183 186 186 190 195 198 204 206 203 208 209 210 212 208 214 217 225 239 253 256 264 266 277 283 293 291 283 288 288 289 289 291 285 281 283 288
166 169 174 177 178 181 174 178 185 190 190 195 199 204 203 198 198 207 215 222 221 219 220 231 242 247 253 261 268 272 280 287 287 281 287 290 287 285 288 286 285 289 290
167 171 176 182 186 183 174 179 185 192 197 201 202 202 206 205 203 209 215 226 235 239 235 238 242 250 258 258 262 270 270 274 282 288 290 286 286 285 289 287 286 288 289
172 178 181 185 187 185 176 180 184 192 197 205 205 206 209 210 207 206 215 227 241 248 244 244 250 258 261 259 259 267 273 280 285 281 278 281 288 288 292 288 283 284 288
173 178 179 182 183 184 177 178 181 191 196 206 209 209 210 213 202 197 207 221 241 258 258 253 264 268 268 262 257 261 265 273 282 284 278 276 288 297 293 284 280 283 287
172 170 175 183 184 187 176 178 185 190 193 199 208 211 212 212 204 200 212 218 233 251 258 265 266 265 263 256 249 249 254 263 278 280 267 269 285 299 293 281 282 291 294
Height
1531 1533 1535 1537 1539 1541 1543 1545 1547 1549 1550 1552 1554 1555 1556 1557 1558 1559 1560 1561 1561 1562 1562 1563 1563 1564 1564 1564 1564 1564 1564 1564 1564 1564 1564 1563 1563 1563 1563 1562 1562 1561 1560
1529 1531 1533 1535 1537 1539 1542 1544 1545 1547 1549 1551 1552 1554 1555 1557 1558 1559 1559 1560 1561 1561 1562 1562 1563 1563 1563 1564 1564 1564 1564 1563 1563 1563 1563 1563 1563 1562 1562 1562 1561 1560 1560
1527 1529 1531 1533 1535 1538 1540 1542 1544 1546 1548 1549 1551 1553 1554 1556 1557 1558 1559 1559 1560 1560 1560 1561 1562 1562 1563 1563 1563 1563 1563 1563 1563 1563 1563 1562 1562 1562 1561 1561 1560 1559 1559
1525 1527 1528 1531 1533 1535 1538 1540 1542 1544 1546 1548 1549 1551 1553 1554 1556 1557 1557 1558 1559 1559 1559 1560 1561 1561 1562 1562 1562 1562 1562 1562 1562 1562 1562 1561 1561 1560 1560 1559 1559 1558 1557
1522 1524 1526 1528 1531 1533 1536 1538 1540 1542 1544 1546 1547 1549 1551 1553 1554 1555 1556 1557 1557 1558 1558 1558 1559 1560 1560 1561 1561 1561 1561 1561 1561 1560 1560 1560 1559 1559 1558 1558 1557 1556 1556
1519 1521 1523 1525 1528 1531 1533 1535 1538 1540 1542 1544 1545 1547 1549 1551 1552 1553 1554 1555 1556 1556 1557 1557 1557 1558 1558 1559 1559 1559 1559 1559 1559 1559 1558 1558 1558 1557 1556 1556 1555 1554 1553
1516 1518 1520 1523 1525 1528 1530 1533 1535 1537 1539 1542 1543 1545 1547 1549 1551 1552 1553 1553 1554 1554 1555 1555 1556 1556 1556 1557 1557 1557 1557 1557 1557 1557 1556 1556 1556 1555 1554 1554 1553 1552 1551
1513 1515 1517 1520 1522 1525 1528 1530 1531 1534 1536 1539 1541 1543 1545 1548 1548 1550 1551 1552 1552 1553 1553 1554 1554 1554 1554 1555 1555 1555 1555 1555 1555 1554 1554 1554 1553 1553 1552 1551 1550 1549 1548
1510 1512 1514 1517 1519 1522 1524 1526 1529 1531 1533 1536 1538 1541 1543 1544 1546 1548 1549 1550 1551 1551 1552 1552 1552 1552 1553 1553 1553 1552 1553 1553 1552 1552 1551 1551 1550 1550 1549 1548 1547 1546 1545
1506 1509 1511 1513 1516 1519 1521 1524 1526 1528 1531 1533 1535 1538 1540 1540 1543 1545 1547 1548 1549 1549 1550 1550 1550 1550 1550 1550 1550 1550 1550 1550 1549 1549 1548 1548 1547 1547 1546 1545 1544 1543 1542
1503 1505 1507 1510 1513 1515 1518 1520 1523 1525 1527 1530 1532 1534 1536 1538 1540 1541 1543 1545 1546 1547 1547 1548 1548 1548 1547 1547 1547 1547 1547 1546 1546 1546 1545 1545 1543 1543 1542 1541 1540 1539 1538
1499 1501 1503 1506 1509 1512 1514 1517 1520 1522 1524 1527 1529 1532 1534 1535 1537 1538 1540 1541 1542 1543 1544 1544 1545 1545 1545 1544 1544 1543 1544 1543 1543 1542 1542 1541 1540 1539 1538 1537 1536 1535 1534
1495 1497 1500 1502 1505 1508 1511 1514 1517 1519 1522 1524 1526 1529 1531 1533 1535 1536 1537 1537 1539 1539 1540 1541 1541 1542 1542 1541 1541 1540 1540 1540 1539 1538 1537 1537 1535 1534 1533 1532 1531 1530 1529
1492 1495 1497 1500 1502 1505 1508 1511 1514 1516 1518 1520 1523 1525 1527 1529 1531 1533 1534 1535 1535 1536 1537 1537 1538 1538 1538 1538 1538 1537 1536 1536 1535 1534 1533 1532 1531 1530 1529 1528 1527 1526 1524
1489 1492 1494 1497 1499 1502 1505 1507 1510 1512 1515 1517 1519 1522 1524 1525 1527 1529 1531 1532 1533 1533 1533 1534 1534 1535 1535 1535 1534 1534 1533 1532 1531 1530 1529 1528 1527 1525 1524 1523 1522 1520 1519
1487 1489 1491 1494 1497 1499 1501 1504 1507 1509 1511 1513 1516 1518 1520 1522 1523 1525 1527 1528 1529 1530 1529 1530 1530 1531 1531 1531 1530 1529 1529 1528 1527 1526 1525 1523 1522 1521 1520 1518 1517 1515 1513
1484 1486 1489 1491 1494 1496 1498 1500 1503 1505 1508 1510 1512 1514 1516 1518 1520 1522 1523 1524 1525 1526 1525 1525 1526 1527 1527 1527 1526 1526 1525 1524 1523 1522 1520 1519 1518 1516 1515 1514 1512 1510 1508
1481 1483 1486 1488 1490 1492 1495 1497 1499 1502 1504 1506 1509 1511 1513 1515 1516 1518 1520 1521 1522 1522 1522 1522 1522 1523 1523 1522 1522 1521 1521 1519 1518 1517 1516 1514 1513 1512 1510 1509 1507 1505 1503
1478 1480 1482 1484 1487 1489 1492 1494 1496 1498 1501 1503 1506 1508 1509 1511 1513 1514 1516 1517 1518 1518 1518 1518 1518 1518 1518 1518 1518 1517 1516 1515 1514 1512 1511 1509 1508 1507 1505 1503 1501 1499 1497
1475 1477 1479 1481 1483 1485 1488 1491 1493 1495 1498 1500 1502 1504 1506 1507 1509 1511 1512 1513 1514 1514 1515 1515 1514 1514 1515 1514 1514 1513 1511 1510 1509 1507 1506 1504 1503 1501 1500 1498 1496 1494 1492
1471 1474 1476 1478 1480 1482 1485 1488 1490 1492 1494 1497 1499 1500 1502 1504 1505 1507 1508 1509 1510 1510 1511 1511 1510 1510 1510 1510 1509 1508 1507 1505 1504 1503 1501 1499 1498 1496 1494 1492 1490 1488 1486
1468 1471 1473 1475 1477 1480 1482 1485 1487 1489 1491 1493 1495 1496 1498 1500 1501 1503 1504 1505 1506 1507 1506 1506 1506 1506 1506 1505 1505 1504 1503 1501 1498 1498 1496 1494 1493 1490 1488 1487 1485 1482 1480
1466 1468 1470 1473 1475 1477 1480 1482 1484 1486 1488 1489 1491 1492 1494 1495 1497 1498 1500 1501 1502 1503 1503 1503 1502 1502 1501 1500 1500 1499 1498 1496 1494 1493 1491 1488 1487 1485 1483 1481 1479 1477 1475
1463 1466 1468 1470 1472 1474 1477 1479 1481 1482 1484 1485 1487 1488 1489 1491 1492 1493 1495 1496 1497 1498 1498 1498 1498 1497 1497 1496 1495 1494 1493 1491 1489 1488 1486 1483 1481 1479 1477 1475 1473 1471 1469
1461 1463 1465 1467 1469 1471 1473 1475 1477 1479 1480 1481 1482 1484 1485 1486 1487 1489 1490 1491 1491 1492 1493 1493 1493 1492 1492 1491 1490 1489 1487 1486 1483 1482 1481 1479 1476 1473 1470 1468 1467 1465 1462
1458 1460 1462 1464 1466 1468 1470 1472 1474 1475 1476 1477 1478 1480 1481 1482 1483 1484 1485 1486 1486 1487 1487 1488 1487 1487 1486 1485 1485 1484 1483 1481 1479 1476 1475 1474 1471 1469 1464 1462 1461 1459 1457